ANIK G1

导读 | 豆包AI

ANIK G1是加拿大发射的阿尼克系列通信卫星,于2013年4月15日成功发射,归入加拿大商用通信卫星体系。加拿大自1972年起推出阿尼克系列通信卫星,是全球最早实现国内卫星通信覆盖的国家。ANIK G1延续系列定位,主要服务加拿大及北美地区通信、广播电视传输需求,依托地球静止轨道为偏远地区提供稳定通信支持,助力加拿大全域连接能力提升。

基本信息
目录编号:
39127
目录名称:
ANIK G1
国际标识:
2013-014A
轨道中心:
EARTH
卫星名称:
ANIK G1
卫星全名:
--
卫星状态:
在轨 (已飞行4763 天)
发射日期:
2013-04-15 UTC
国别 :
加拿大 (CA)
星等 :
--
轨道信息
数据来源 国际轨道数据 AOE轨道数据
星历时间 2026-04-30T20:53:10+0800
10小时前
查看轨道信息
2026-04-30T11:00:00+0800
20小时前
查看轨道信息
半长轴 42164.812km 42164.924km
偏心率 0.0002248 0.0002292
轨道倾角 0.019° 0.011°
近地点辐角 114.321° 115.245°
升交点赤经 268.142° 265.512°
平近点角 281.997° 135.006°
近地点 35777.196km 35777.122km
远地点 35796.154km 35796.452km
周期 1436.101分钟 1436.107分钟
每日圈数 1.002715 1.002711
详细信息
使用方式:
暂无
2D轨道图
3D轨道图
轨道高度分析图
轨道倾角分析图
轨道综合分析图
查看轨道综合分析图